BAW629 LGAV-EGLL

Flight info

Callsign BAW629
Flight time 3h 37m
Altitude 38000
Route KOR1N KOR UL53 IPTES DCT DIMIS DCT VAKSU DCT ROTAR DCT BORMI DCT RESIA DCT ELMUR L613 HOC DCT LUL DCT RLP DCT ROTSI DCT KOTUN DCT NINAL DCT ABNUR DCT DIMAL DCT ALESO ALESO1H
Aircraft A20N/M-SDGIJ1LRWXY/SB1

Departure

Time 2026-05-05 15:05
Airport Athens Eleftherios Venizelos International Airport (LGAV)

Arrival

Time 2026-05-05 18:43
Airport London Heathrow Airport (EGLL)
Time Latitude Longitude Altitude Speed Heading
2026-05-05 14:47 37.93376 23.94606 304 ft 0 kts 307°
2026-05-05 14:54 37.93373 23.94611 304 ft 4 kts 307°
2026-05-05 14:54 37.93357 23.94639 304 ft 4 kts 307°
2026-05-05 14:54 37.93345 23.94660 305 ft 4 kts 310°
2026-05-05 14:55 37.93325 23.94680 306 ft 4 kts 347°
2026-05-05 14:55 37.93304 23.94677 305 ft 1 kts 37°
2026-05-05 14:55 37.93303 23.94677 305 ft 1 kts 37°
2026-05-05 14:58 37.93308 23.94681 305 ft 4 kts 37°
2026-05-05 14:58 37.93343 23.94714 307 ft 12 kts 36°
2026-05-05 14:58 37.93404 23.94773 306 ft 10 kts 36°
2026-05-05 14:59 37.93444 23.94836 304 ft 9 kts 82°
2026-05-05 14:59 37.93412 23.94929 304 ft 14 kts 121°
2026-05-05 14:59 37.93400 23.95041 305 ft 17 kts 53°
2026-05-05 14:59 37.93506 23.95144 303 ft 19 kts 36°
2026-05-05 15:00 37.93609 23.95243 301 ft 18 kts 36°
2026-05-05 15:00 37.93673 23.95305 301 ft 17 kts 34°
2026-05-05 15:00 37.93821 23.95444 303 ft 22 kts 36°
2026-05-05 15:00 37.93933 23.95551 302 ft 19 kts 41°
2026-05-05 15:01 37.94058 23.95669 301 ft 28 kts 35°
2026-05-05 15:01 37.94217 23.95820 303 ft 28 kts 37°
2026-05-05 15:01 37.94371 23.95962 302 ft 25 kts 43°
2026-05-05 15:01 37.94501 23.96088 304 ft 22 kts 37°
2026-05-05 15:02 37.94615 23.96198 303 ft 19 kts 36°
2026-05-05 15:02 37.94759 23.96334 304 ft 29 kts 37°
2026-05-05 15:02 37.94917 23.96486 305 ft 27 kts 36°
2026-05-05 15:02 37.95061 23.96617 306 ft 18 kts 39°
2026-05-05 15:03 37.95154 23.96707 308 ft 15 kts 37°
2026-05-05 15:03 37.95249 23.96799 307 ft 18 kts 36°
2026-05-05 15:03 37.95289 23.96912 308 ft 12 kts 123°
2026-05-05 15:03 37.95252 23.96971 311 ft 6 kts 130°
2026-05-05 15:04 37.95231 23.97006 313 ft 9 kts 128°
2026-05-05 15:04 37.95188 23.97020 313 ft 5 kts 197°
2026-05-05 15:04 37.95176 23.97009 313 ft 4 kts 218°
2026-05-05 15:04 37.95027 23.96866 312 ft 58 kts 217°
2026-05-05 15:05 37.93740 23.95638 304 ft 161 kts 214°
2026-05-05 15:05 37.92839 23.94796 749 ft 158 kts 209°
2026-05-05 15:05 37.91871 23.94117 1250 ft 159 kts 205°
2026-05-05 15:06 37.90821 23.93557 1626 ft 173 kts 204°
2026-05-05 15:06 37.89654 23.92897 1871 ft 197 kts 207°
2026-05-05 15:06 37.88353 23.92070 2387 ft 221 kts 208°
2026-05-05 15:06 37.86971 23.91143 3314 ft 228 kts 211°
2026-05-05 15:07 37.85558 23.90160 4272 ft 234 kts 211°
2026-05-05 15:07 37.84108 23.89155 5223 ft 240 kts 211°
2026-05-05 15:07 37.82627 23.88117 6179 ft 246 kts 212°
2026-05-05 15:07 37.81117 23.87046 7094 ft 250 kts 211°
2026-05-05 15:08 37.79590 23.85968 8067 ft 253 kts 212°
2026-05-05 15:08 37.78042 23.84875 9049 ft 256 kts 212°
2026-05-05 15:08 37.76475 23.83765 10008 ft 260 kts 212°
2026-05-05 15:08 37.74868 23.82650 10856 ft 265 kts 211°
2026-05-05 15:09 37.73224 23.81540 11690 ft 270 kts 210°
2026-05-05 15:09 37.71545 23.80416 12522 ft 276 kts 210°
2026-05-05 15:09 37.69853 23.79285 13328 ft 281 kts 210°
2026-05-05 15:09 37.68106 23.78117 14091 ft 287 kts 210°
2026-05-05 15:10 37.66325 23.76935 14812 ft 291 kts 210°
2026-05-05 15:10 37.64523 23.75740 15541 ft 295 kts 211°
2026-05-05 15:10 37.62690 23.74524 16257 ft 298 kts 211°
2026-05-05 15:10 37.60850 23.73302 17003 ft 300 kts 213°
2026-05-05 15:11 37.59107 23.71870 17702 ft 298 kts 227°
2026-05-05 15:11 37.57788 23.69911 18379 ft 290 kts 247°
2026-05-05 15:11 37.57028 23.67581 18903 ft 290 kts 259°
2026-05-05 15:11 37.56498 23.65073 19205 ft 304 kts 262°
2026-05-05 15:12 37.55989 23.62420 19476 ft 320 kts 262°
2026-05-05 15:12 37.55449 23.59621 19742 ft 336 kts 261°
2026-05-05 15:12 37.54872 23.56697 20006 ft 352 kts 259°
2026-05-05 15:12 37.54241 23.53654 20257 ft 366 kts 259°
2026-05-05 15:13 37.53591 23.50498 20525 ft 378 kts 261°
2026-05-05 15:13 37.52929 23.47261 20947 ft 385 kts 259°
2026-05-05 15:13 37.52251 23.43975 21500 ft 389 kts 259°
2026-05-05 15:13 37.51577 23.40666 22085 ft 391 kts 261°
2026-05-05 15:14 37.50922 23.37340 22668 ft 393 kts 262°
2026-05-05 15:14 37.50442 23.33996 23224 ft 391 kts 269°
2026-05-05 15:14 37.50377 23.30591 23768 ft 388 kts 278°
2026-05-05 15:14 37.50791 23.27249 24239 ft 385 kts 288°
2026-05-05 15:15 37.51670 23.24073 24691 ft 383 kts 298°
2026-05-05 15:15 37.52977 23.21171 25187 ft 380 kts 307°
2026-05-05 15:15 37.54657 23.18611 25659 ft 379 kts 316°
2026-05-05 15:15 37.56675 23.16458 26113 ft 380 kts 325°
2026-05-05 15:16 37.58948 23.14756 26570 ft 381 kts 331°
2026-05-05 15:16 37.61324 23.13257 27021 ft 383 kts 333°
2026-05-05 15:16 37.63731 23.11782 27465 ft 385 kts 333°
2026-05-05 15:16 37.66141 23.10304 27881 ft 386 kts 332°
2026-05-05 15:17 37.68555 23.08816 28309 ft 387 kts 332°
2026-05-05 15:17 37.70989 23.07310 28696 ft 390 kts 332°
2026-05-05 15:17 37.73434 23.05792 29061 ft 392 kts 332°
2026-05-05 15:17 37.75853 23.04289 29500 ft 393 kts 332°
2026-05-05 15:18 37.78312 23.02760 29906 ft 394 kts 332°
2026-05-05 15:18 37.80765 23.01233 30392 ft 392 kts 332°
2026-05-05 15:18 37.83208 22.99711 30839 ft 391 kts 332°
2026-05-05 15:18 37.85644 22.98191 31232 ft 390 kts 332°
2026-05-05 15:19 37.88070 22.96676 31628 ft 389 kts 331°
2026-05-05 15:19 37.90434 22.95028 31994 ft 387 kts 326°
2026-05-05 15:19 37.92604 22.93021 32358 ft 386 kts 319°
2026-05-05 15:19 37.94513 22.90633 32717 ft 386 kts 311°
2026-05-05 15:20 37.96175 22.87954 33120 ft 385 kts 308°
2026-05-05 15:20 37.97737 22.85210 33571 ft 382 kts 307°
2026-05-05 15:20 37.99253 22.82442 33950 ft 381 kts 307°
2026-05-05 15:20 38.00748 22.79670 34241 ft 380 kts 306°
2026-05-05 15:21 38.02221 22.76936 34498 ft 379 kts 306°
2026-05-05 15:21 38.03711 22.74181 34804 ft 378 kts 306°
2026-05-05 15:21 38.05202 22.71440 35039 ft 378 kts 306°
2026-05-05 15:21 38.06699 22.68697 35242 ft 378 kts 306°
2026-05-05 15:22 38.08202 22.65951 35471 ft 378 kts 306°
2026-05-05 15:22 38.09705 22.63210 35687 ft 378 kts 306°
2026-05-05 15:22 38.11207 22.60468 35903 ft 378 kts 306°
2026-05-05 15:22 38.12713 22.57717 36108 ft 379 kts 306°
2026-05-05 15:23 38.14214 22.54972 36297 ft 379 kts 306°
2026-05-05 15:23 38.15719 22.52216 36494 ft 379 kts 306°
2026-05-05 15:23 38.17223 22.49461 36673 ft 379 kts 306°
2026-05-05 15:23 38.18725 22.46704 36864 ft 379 kts 305°
2026-05-05 15:24 38.20228 22.43945 37082 ft 378 kts 306°
2026-05-05 15:24 38.21704 22.41231 37310 ft 377 kts 305°
2026-05-05 15:24 38.23195 22.38489 37489 ft 377 kts 305°
2026-05-05 15:24 38.24690 22.35737 37648 ft 378 kts 305°
2026-05-05 15:25 38.26185 22.32984 37800 ft 378 kts 305°
2026-05-05 15:25 38.27677 22.30232 37982 ft 378 kts 305°
2026-05-05 15:25 38.29173 22.27472 38072 ft 379 kts 304°
2026-05-05 15:26 38.32167 22.21939 38070 ft 378 kts 304°
2026-05-05 15:26 38.35147 22.16418 38084 ft 378 kts 304°
2026-05-05 15:27 38.37622 22.11827 38066 ft 378 kts 304°
2026-05-05 15:27 38.41091 22.05382 38086 ft 379 kts 304°
2026-05-05 15:28 38.43589 22.00739 38085 ft 379 kts 304°
2026-05-05 15:28 38.46549 21.95221 38084 ft 379 kts 304°
2026-05-05 15:29 38.49533 21.89671 38087 ft 379 kts 304°
2026-05-05 15:29 38.52513 21.84084 38086 ft 381 kts 304°
2026-05-05 15:30 38.55491 21.78487 38079 ft 380 kts 304°
2026-05-05 15:30 38.58468 21.72893 38091 ft 381 kts 304°
2026-05-05 15:31 38.61445 21.67292 38092 ft 381 kts 304°
2026-05-05 15:31 38.64424 21.61680 38093 ft 381 kts 304°
2026-05-05 15:32 38.67394 21.56074 38088 ft 380 kts 303°
2026-05-05 15:32 38.70581 21.50728 38091 ft 381 kts 313°
2026-05-05 15:33 38.74787 21.46567 38091 ft 385 kts 326°
2026-05-05 15:33 38.79528 21.43319 38096 ft 387 kts 329°
2026-05-05 15:34 38.84357 21.40251 38097 ft 387 kts 329°
2026-05-05 15:34 38.89144 21.37213 38097 ft 386 kts 329°
2026-05-05 15:35 38.93961 21.34118 38097 ft 386 kts 329°
2026-05-05 15:35 38.98755 21.31014 38098 ft 386 kts 329°
2026-05-05 15:36 39.03556 21.27897 38104 ft 386 kts 329°
2026-05-05 15:36 39.08359 21.24776 38103 ft 386 kts 329°
2026-05-05 15:37 39.13160 21.21652 38102 ft 386 kts 329°
2026-05-05 15:37 39.17930 21.18543 38103 ft 386 kts 329°
2026-05-05 15:38 39.22734 21.15408 38103 ft 386 kts 329°
2026-05-05 15:38 39.27545 21.12263 38112 ft 388 kts 329°
2026-05-05 15:39 39.32366 21.09106 38109 ft 389 kts 329°
2026-05-05 15:39 39.37177 21.05952 38112 ft 390 kts 329°
2026-05-05 15:40 39.42024 21.02768 38115 ft 390 kts 329°
2026-05-05 15:40 39.46869 20.99580 38112 ft 392 kts 329°
2026-05-05 15:41 39.51729 20.96381 38104 ft 391 kts 329°
2026-05-05 15:41 39.56549 20.93201 38105 ft 391 kts 329°
2026-05-05 15:42 39.61400 20.90015 38102 ft 391 kts 329°
2026-05-05 15:42 39.66257 20.86817 38104 ft 391 kts 329°
2026-05-05 15:43 39.71097 20.83614 38104 ft 391 kts 329°
2026-05-05 15:43 39.75945 20.80395 38089 ft 390 kts 329°
2026-05-05 15:44 39.80793 20.77161 38101 ft 393 kts 329°
2026-05-05 15:44 39.85635 20.73932 38104 ft 393 kts 329°
2026-05-05 15:45 39.90508 20.70684 38105 ft 392 kts 329°
2026-05-05 15:45 39.95347 20.67449 38099 ft 390 kts 329°
2026-05-05 15:46 40.00175 20.64209 38097 ft 390 kts 329°
2026-05-05 15:46 40.05002 20.60969 38099 ft 389 kts 329°
2026-05-05 15:47 40.09475 20.57132 38103 ft 387 kts 321°
2026-05-05 15:47 40.13747 20.52852 38106 ft 386 kts 320°
2026-05-05 15:48 40.17955 20.48506 38096 ft 384 kts 320°
2026-05-05 15:48 40.22142 20.44179 38098 ft 382 kts 320°
2026-05-05 15:49 40.26311 20.39850 38100 ft 382 kts 320°
2026-05-05 15:49 40.30487 20.35541 38098 ft 382 kts 320°
2026-05-05 15:50 40.34643 20.31246 38096 ft 382 kts 320°
2026-05-05 15:50 40.38816 20.26923 38111 ft 382 kts 320°
2026-05-05 15:51 40.42976 20.22606 38094 ft 380 kts 320°
2026-05-05 15:51 40.47125 20.18305 38102 ft 379 kts 320°
2026-05-05 15:52 40.51242 20.14041 38103 ft 379 kts 320°
2026-05-05 15:52 40.55384 20.09733 38102 ft 380 kts 320°
2026-05-05 15:53 40.59535 20.05400 38097 ft 381 kts 320°
2026-05-05 15:53 40.63688 20.01053 38109 ft 381 kts 320°
2026-05-05 15:54 40.67836 19.96705 38099 ft 379 kts 320°
2026-05-05 15:54 40.71952 19.92384 38095 ft 378 kts 320°
2026-05-05 15:55 40.76066 19.88057 38092 ft 378 kts 320°
2026-05-05 15:55 40.80155 19.83750 38097 ft 378 kts 320°
2026-05-05 15:56 40.84276 19.79403 38085 ft 378 kts 320°
2026-05-05 15:56 40.88409 19.75035 38095 ft 380 kts 320°
2026-05-05 15:57 40.92509 19.70696 38097 ft 379 kts 319°
2026-05-05 15:57 40.96624 19.66333 38094 ft 379 kts 319°
2026-05-05 15:58 41.00740 19.61962 38096 ft 379 kts 319°
2026-05-05 15:58 41.04847 19.57593 38097 ft 379 kts 319°
2026-05-05 15:59 41.08960 19.53211 38097 ft 378 kts 319°
2026-05-05 15:59 41.13038 19.48860 38095 ft 378 kts 319°
2026-05-05 16:00 41.17140 19.44474 38093 ft 379 kts 319°
2026-05-05 16:00 41.21242 19.40083 38097 ft 379 kts 319°
2026-05-05 16:01 41.25343 19.35684 38093 ft 379 kts 319°
2026-05-05 16:01 41.29453 19.31268 38091 ft 379 kts 319°
2026-05-05 16:02 41.33556 19.26852 38091 ft 379 kts 319°
2026-05-05 16:02 41.37636 19.22455 38086 ft 379 kts 319°
2026-05-05 16:03 41.41738 19.18027 38087 ft 380 kts 318°
2026-05-05 16:03 41.45845 19.13584 38087 ft 380 kts 318°
2026-05-05 16:04 41.49961 19.09125 38086 ft 381 kts 318°
2026-05-05 16:04 41.54085 19.04639 38086 ft 382 kts 318°
2026-05-05 16:05 41.58206 19.00148 38083 ft 382 kts 318°
2026-05-05 16:05 41.62325 18.95659 38081 ft 382 kts 318°
2026-05-05 16:06 41.66416 18.91196 38077 ft 383 kts 317°
2026-05-05 16:06 41.70558 18.86671 38081 ft 384 kts 317°
2026-05-05 16:07 41.74704 18.82134 38082 ft 384 kts 317°
2026-05-05 16:07 41.78836 18.77604 38068 ft 384 kts 317°
2026-05-05 16:08 41.82979 18.73053 38078 ft 386 kts 317°
2026-05-05 16:08 41.87135 18.68481 38075 ft 386 kts 317°
2026-05-05 16:09 41.91268 18.63927 38077 ft 388 kts 317°
2026-05-05 16:09 41.95443 18.59317 38076 ft 389 kts 317°
2026-05-05 16:10 41.99626 18.54690 38076 ft 389 kts 316°
2026-05-05 16:10 42.03421 18.49561 38075 ft 386 kts 309°
2026-05-05 16:11 42.06976 18.44137 38072 ft 386 kts 308°
2026-05-05 16:12 42.14015 18.33111 38075 ft 389 kts 308°
2026-05-05 16:13 42.22844 18.19282 38080 ft 390 kts 308°
2026-05-05 16:13 42.25790 18.14657 38079 ft 390 kts 308°
2026-05-05 16:14 42.32856 18.03519 38086 ft 390 kts 308°
2026-05-05 16:15 42.39919 17.92340 38076 ft 390 kts 308°
2026-05-05 16:16 42.46973 17.81150 38066 ft 391 kts 308°
2026-05-05 16:17 42.52261 17.72735 38058 ft 391 kts 307°
2026-05-05 16:18 42.57559 17.64276 38067 ft 394 kts 307°
2026-05-05 16:19 42.62885 17.55752 38062 ft 394 kts 307°
2026-05-05 16:19 42.68204 17.47213 38077 ft 394 kts 307°
2026-05-05 16:20 42.75294 17.35791 38061 ft 396 kts 307°
2026-05-05 16:22 42.84162 17.21443 38054 ft 397 kts 307°
2026-05-05 16:23 42.91263 17.09903 38050 ft 397 kts 307°
2026-05-05 16:23 42.96590 17.01216 38046 ft 398 kts 307°
2026-05-05 16:24 43.00127 16.95433 38042 ft 400 kts 307°
2026-05-05 16:25 43.05480 16.86661 38052 ft 400 kts 307°
2026-05-05 16:25 43.10823 16.77880 38044 ft 400 kts 307°
2026-05-05 16:26 43.17913 16.66184 38057 ft 402 kts 306°
2026-05-05 16:27 43.21490 16.60264 38058 ft 404 kts 306°
2026-05-05 16:27 43.25077 16.54319 38051 ft 404 kts 306°
2026-05-05 16:28 43.28632 16.48409 38065 ft 404 kts 306°
2026-05-05 16:28 43.32202 16.42449 38055 ft 404 kts 306°
2026-05-05 16:29 43.35772 16.36486 38073 ft 403 kts 306°
2026-05-05 16:29 43.39341 16.30519 38072 ft 405 kts 306°
2026-05-05 16:30 43.42926 16.24513 38074 ft 406 kts 306°
2026-05-05 16:30 43.46506 16.18506 38076 ft 406 kts 306°
2026-05-05 16:31 43.50061 16.12529 38075 ft 405 kts 306°
2026-05-05 16:31 43.53636 16.06505 38068 ft 405 kts 306°
2026-05-05 16:32 43.57207 16.00474 38067 ft 405 kts 306°
2026-05-05 16:32 43.60777 15.94431 38056 ft 407 kts 306°
2026-05-05 16:33 43.64333 15.88400 38050 ft 407 kts 306°
2026-05-05 16:33 43.67914 15.82316 38059 ft 407 kts 306°
2026-05-05 16:34 43.71484 15.76238 38052 ft 407 kts 306°
2026-05-05 16:34 43.75044 15.70164 38050 ft 405 kts 306°
2026-05-05 16:35 43.78563 15.64147 38059 ft 404 kts 306°
2026-05-05 16:35 43.82098 15.58088 38054 ft 405 kts 306°
2026-05-05 16:36 43.85639 15.52008 38058 ft 405 kts 305°
2026-05-05 16:36 43.89178 15.45919 38049 ft 405 kts 305°
2026-05-05 16:37 43.92711 15.39826 38049 ft 405 kts 305°
2026-05-05 16:37 43.96228 15.33774 38058 ft 405 kts 306°
2026-05-05 16:38 43.99771 15.27687 38047 ft 405 kts 306°
2026-05-05 16:38 44.03302 15.21564 38044 ft 407 kts 306°
2026-05-05 16:39 44.06838 15.15407 38046 ft 407 kts 306°
2026-05-05 16:39 44.10368 15.09251 38038 ft 407 kts 305°
2026-05-05 16:40 44.13872 15.03131 38034 ft 407 kts 305°
2026-05-05 16:40 44.17399 14.96960 38023 ft 406 kts 305°
2026-05-05 16:41 44.20917 14.90812 38019 ft 404 kts 305°
2026-05-05 16:41 44.24417 14.84648 38020 ft 406 kts 305°
2026-05-05 16:42 44.27908 14.78488 38031 ft 407 kts 305°
2026-05-05 16:42 44.31428 14.72272 38017 ft 408 kts 305°
2026-05-05 16:43 44.34945 14.66052 38020 ft 407 kts 305°
2026-05-05 16:43 44.38455 14.59831 38014 ft 407 kts 305°
2026-05-05 16:44 44.41956 14.53611 38014 ft 407 kts 304°
2026-05-05 16:44 44.45456 14.47380 38012 ft 407 kts 304°
2026-05-05 16:45 44.48963 14.41122 38019 ft 410 kts 305°
2026-05-05 16:45 44.52466 14.34855 38007 ft 411 kts 304°
2026-05-05 16:46 44.55988 14.28545 38001 ft 411 kts 304°
2026-05-05 16:46 44.59504 14.22230 38007 ft 411 kts 304°
2026-05-05 16:47 44.63021 14.15901 38001 ft 411 kts 304°
2026-05-05 16:47 44.66528 14.09574 38018 ft 411 kts 304°
2026-05-05 16:48 44.70034 14.03235 38014 ft 409 kts 304°
2026-05-05 16:48 44.73506 13.96945 38020 ft 410 kts 304°
2026-05-05 16:49 44.77017 13.90565 38018 ft 412 kts 304°
2026-05-05 16:49 44.80528 13.84176 38020 ft 412 kts 304°
2026-05-05 16:50 44.84036 13.77779 38020 ft 412 kts 304°
2026-05-05 16:50 44.87541 13.71372 38015 ft 412 kts 304°
2026-05-05 16:51 44.91020 13.64997 38016 ft 412 kts 304°
2026-05-05 16:51 44.94516 13.58577 38011 ft 412 kts 304°
2026-05-05 16:52 44.98007 13.52151 37996 ft 413 kts 304°
2026-05-05 16:52 45.01519 13.45671 37986 ft 415 kts 304°
2026-05-05 16:53 45.05032 13.39176 37973 ft 416 kts 304°
2026-05-05 16:53 45.08524 13.32706 37978 ft 416 kts 304°
2026-05-05 16:54 45.12030 13.26196 37977 ft 416 kts 304°
2026-05-05 16:54 45.15559 13.19626 37973 ft 416 kts 303°
2026-05-05 16:55 45.19041 13.13131 37971 ft 415 kts 303°
2026-05-05 16:55 45.22532 13.06601 37970 ft 415 kts 303°
2026-05-05 16:56 45.25992 13.00013 37965 ft 415 kts 300°
2026-05-05 16:56 45.29114 12.93105 37971 ft 415 kts 299°
2026-05-05 16:57 45.32136 12.86185 37971 ft 415 kts 298°
2026-05-05 16:57 45.35161 12.79190 37972 ft 414 kts 298°
2026-05-05 16:58 45.38179 12.72204 37984 ft 414 kts 298°
2026-05-05 16:58 45.41197 12.65214 37988 ft 414 kts 298°
2026-05-05 16:59 45.43705 12.59395 37989 ft 414 kts 298°
2026-05-05 16:59 45.46719 12.52388 37991 ft 414 kts 298°
2026-05-05 17:00 45.49725 12.45381 37993 ft 414 kts 298°
2026-05-05 17:00 45.52730 12.38358 37994 ft 415 kts 298°
2026-05-05 17:01 45.55735 12.31318 37993 ft 415 kts 298°
2026-05-05 17:01 45.58714 12.24322 37994 ft 415 kts 298°
2026-05-05 17:02 45.61711 12.17266 38034 ft 415 kts 297°
2026-05-05 17:02 45.64701 12.10209 38021 ft 415 kts 297°
2026-05-05 17:03 45.67683 12.03152 38024 ft 415 kts 297°
2026-05-05 17:03 45.70662 11.96083 38016 ft 414 kts 297°
2026-05-05 17:04 45.73621 11.89046 38016 ft 414 kts 297°
2026-05-05 17:04 45.76609 11.81920 38024 ft 415 kts 297°
2026-05-05 17:05 45.79561 11.74862 38020 ft 415 kts 297°
2026-05-05 17:05 45.82522 11.67764 38032 ft 415 kts 297°
2026-05-05 17:06 45.85480 11.60651 38014 ft 415 kts 296°
2026-05-05 17:06 45.88439 11.53530 38023 ft 415 kts 296°
2026-05-05 17:07 45.91392 11.46400 38017 ft 415 kts 296°
2026-05-05 17:07 45.94335 11.39275 38020 ft 415 kts 296°
2026-05-05 17:08 45.97278 11.32129 38019 ft 415 kts 296°
2026-05-05 17:08 46.00216 11.24978 38018 ft 415 kts 296°
2026-05-05 17:09 46.03151 11.17819 38025 ft 416 kts 296°
2026-05-05 17:09 46.06033 11.10648 38023 ft 416 kts 295°
2026-05-05 17:10 46.08914 11.03433 38027 ft 415 kts 295°
2026-05-05 17:10 46.11794 10.96211 38027 ft 415 kts 295°
2026-05-05 17:11 46.14669 10.88988 38018 ft 415 kts 295°
2026-05-05 17:11 46.17546 10.81727 38023 ft 415 kts 295°
2026-05-05 17:12 46.20388 10.74530 38007 ft 416 kts 295°
2026-05-05 17:12 46.23269 10.67272 38001 ft 416 kts 295°
2026-05-05 17:13 46.26146 10.60015 37995 ft 416 kts 295°
2026-05-05 17:13 46.29011 10.52740 37993 ft 416 kts 294°
2026-05-05 17:14 46.31857 10.45449 38025 ft 416 kts 294°
2026-05-05 17:14 46.34679 10.38185 37980 ft 416 kts 293°
2026-05-05 17:15 46.37525 10.30877 37974 ft 416 kts 294°
2026-05-05 17:15 46.40385 10.23558 37975 ft 417 kts 294°
2026-05-05 17:16 46.43221 10.16293 37971 ft 417 kts 294°
2026-05-05 17:16 46.46067 10.08946 37986 ft 417 kts 294°
2026-05-05 17:17 46.49376 10.01951 37954 ft 425 kts 303°
2026-05-05 17:17 46.53228 9.95390 37959 ft 428 kts 306°
2026-05-05 17:18 46.57141 9.88951 37962 ft 429 kts 305°
2026-05-05 17:18 46.61116 9.82454 37962 ft 429 kts 305°
2026-05-05 17:19 46.65096 9.75936 37957 ft 430 kts 305°
2026-05-05 17:19 46.69047 9.69373 37946 ft 431 kts 305°
2026-05-05 17:20 46.72966 9.62841 37926 ft 430 kts 305°
2026-05-05 17:20 46.76923 9.56234 37911 ft 431 kts 305°
2026-05-05 17:21 46.80874 9.49631 37900 ft 432 kts 306°
2026-05-05 17:22 46.86821 9.39669 37885 ft 433 kts 306°
2026-05-05 17:22 46.90781 9.33015 37875 ft 434 kts 305°
2026-05-05 17:23 46.94724 9.26368 37876 ft 434 kts 306°
2026-05-05 17:23 46.98691 9.19676 37878 ft 434 kts 306°
2026-05-05 17:24 47.02644 9.12976 37869 ft 434 kts 306°
2026-05-05 17:24 47.06573 9.06301 37903 ft 435 kts 306°
2026-05-05 17:25 47.10525 8.99577 37873 ft 435 kts 306°
2026-05-05 17:25 47.14394 8.92751 37876 ft 432 kts 300°
2026-05-05 17:26 47.17132 8.85036 37878 ft 424 kts 288°
2026-05-05 17:26 47.19282 8.76980 37878 ft 423 kts 285°
2026-05-05 17:27 47.21310 8.68851 37899 ft 423 kts 285°
2026-05-05 17:27 47.23333 8.60712 37876 ft 424 kts 285°
2026-05-05 17:28 47.25377 8.52552 37881 ft 425 kts 285°
2026-05-05 17:28 47.27431 8.44396 37879 ft 425 kts 286°
2026-05-05 17:29 47.29475 8.36278 37874 ft 426 kts 285°
2026-05-05 17:29 47.31526 8.28059 37886 ft 427 kts 285°
2026-05-05 17:30 47.33573 8.19815 37879 ft 429 kts 285°
2026-05-05 17:30 47.35628 8.11542 37879 ft 430 kts 285°
2026-05-05 17:31 47.37664 8.03308 37876 ft 429 kts 285°
2026-05-05 17:31 47.39703 7.95020 37875 ft 429 kts 285°
2026-05-05 17:32 47.41736 7.86725 37870 ft 429 kts 285°
2026-05-05 17:32 47.43768 7.78404 37863 ft 429 kts 285°
2026-05-05 17:33 47.45776 7.70146 37860 ft 429 kts 285°
2026-05-05 17:33 47.47452 7.61712 37857 ft 426 kts 280°
2026-05-05 17:34 47.48909 7.53207 37856 ft 426 kts 279°
2026-05-05 17:34 47.50322 7.44678 37870 ft 428 kts 279°
2026-05-05 17:35 47.51733 7.36113 37872 ft 429 kts 279°
2026-05-05 17:35 47.53146 7.27540 37864 ft 429 kts 279°
2026-05-05 17:36 47.54548 7.19012 37861 ft 429 kts 279°
2026-05-05 17:36 47.55951 7.10430 37885 ft 429 kts 279°
2026-05-05 17:37 47.57338 7.01820 37862 ft 430 kts 279°
2026-05-05 17:37 47.58719 6.93195 37861 ft 430 kts 279°
2026-05-05 17:38 47.60097 6.84561 37861 ft 431 kts 279°
2026-05-05 17:38 47.61466 6.75958 37861 ft 431 kts 279°
2026-05-05 17:39 47.62854 6.67303 37868 ft 431 kts 279°
2026-05-05 17:39 47.64231 6.58634 37867 ft 431 kts 279°
2026-05-05 17:40 47.65585 6.49963 37863 ft 431 kts 278°
2026-05-05 17:40 47.66938 6.41276 37859 ft 431 kts 279°
2026-05-05 17:41 47.68289 6.32605 37860 ft 431 kts 279°
2026-05-05 17:41 47.69853 6.24033 37860 ft 434 kts 283°
2026-05-05 17:42 47.71707 6.15489 37858 ft 435 kts 284°
2026-05-05 17:42 47.73565 6.06934 37866 ft 435 kts 283°
2026-05-05 17:43 47.75390 5.98362 37855 ft 435 kts 282°
2026-05-05 17:43 47.77184 5.89769 37858 ft 435 kts 284°
2026-05-05 17:44 47.78983 5.81226 37852 ft 436 kts 284°
2026-05-05 17:44 47.80810 5.72612 37843 ft 436 kts 284°
2026-05-05 17:45 47.82323 5.65437 37836 ft 436 kts 284°
2026-05-05 17:45 47.84125 5.56816 37837 ft 436 kts 284°
2026-05-05 17:46 47.85911 5.48165 37836 ft 436 kts 284°
2026-05-05 17:46 47.87684 5.39511 37830 ft 437 kts 284°
2026-05-05 17:47 47.89462 5.30846 37831 ft 438 kts 286°
2026-05-05 17:47 47.92236 5.22735 37826 ft 444 kts 304°
2026-05-05 17:48 47.96204 5.15622 37828 ft 447 kts 309°
2026-05-05 17:48 48.00370 5.08782 37840 ft 448 kts 310°
2026-05-05 17:49 48.04581 5.01908 37820 ft 448 kts 309°
2026-05-05 17:49 48.08740 4.95032 37820 ft 448 kts 309°
2026-05-05 17:50 48.12911 4.88094 37820 ft 448 kts 309°
2026-05-05 17:50 48.17074 4.81151 37817 ft 448 kts 309°
2026-05-05 17:51 48.21241 4.74189 37805 ft 448 kts 309°
2026-05-05 17:51 48.25399 4.67223 37805 ft 448 kts 309°
2026-05-05 17:52 48.29552 4.60247 37802 ft 448 kts 309°
2026-05-05 17:52 48.33678 4.53300 37799 ft 448 kts 309°
2026-05-05 17:53 48.37821 4.46303 37802 ft 447 kts 309°
2026-05-05 17:53 48.41950 4.39313 37800 ft 447 kts 309°
2026-05-05 17:54 48.46078 4.32305 37800 ft 447 kts 309°
2026-05-05 17:54 48.50206 4.25280 37797 ft 447 kts 309°
2026-05-05 17:55 48.54331 4.18240 37806 ft 447 kts 309°
2026-05-05 17:55 48.58452 4.11186 37794 ft 447 kts 309°
2026-05-05 17:56 48.62553 4.04163 37799 ft 448 kts 309°
2026-05-05 17:56 48.66671 3.97073 37802 ft 448 kts 309°
2026-05-05 17:57 48.70782 3.89977 37798 ft 448 kts 309°
2026-05-05 17:57 48.75027 3.83056 37798 ft 449 kts 313°
2026-05-05 17:58 48.79507 3.76432 37797 ft 449 kts 314°
2026-05-05 17:58 48.84006 3.69851 37795 ft 449 kts 314°
2026-05-05 17:59 48.88464 3.63260 37805 ft 449 kts 313°
2026-05-05 17:59 48.92922 3.56588 37799 ft 449 kts 313°
2026-05-05 18:00 48.97371 3.49902 37807 ft 449 kts 314°
2026-05-05 18:00 49.01807 3.43205 37805 ft 450 kts 314°
2026-05-05 18:01 49.06258 3.36471 37809 ft 451 kts 314°
2026-05-05 18:01 49.10693 3.29784 37807 ft 452 kts 314°
2026-05-05 18:02 49.15157 3.23024 37810 ft 452 kts 313°
2026-05-05 18:02 49.19602 3.16233 37815 ft 452 kts 313°
2026-05-05 18:03 49.24053 3.09420 37823 ft 452 kts 313°
2026-05-05 18:03 49.28495 3.02614 37820 ft 452 kts 313°
2026-05-05 18:04 49.32947 2.95790 37821 ft 453 kts 313°
2026-05-05 18:04 49.37359 2.88998 37821 ft 453 kts 313°
2026-05-05 18:05 49.41803 2.82136 37829 ft 452 kts 313°
2026-05-05 18:05 49.46238 2.75271 37828 ft 452 kts 313°
2026-05-05 18:06 49.50681 2.68395 37841 ft 453 kts 313°
2026-05-05 18:06 49.55110 2.61503 37836 ft 453 kts 313°
2026-05-05 18:07 49.59549 2.54604 37837 ft 453 kts 316°
2026-05-05 18:07 49.64446 2.48459 37845 ft 454 kts 321°
2026-05-05 18:08 49.69458 2.42598 37847 ft 454 kts 323°
2026-05-05 18:08 49.74524 2.36752 37847 ft 454 kts 322°
2026-05-05 18:09 49.79537 2.30819 37854 ft 453 kts 321°
2026-05-05 18:09 49.84528 2.24856 37859 ft 453 kts 320°
2026-05-05 18:10 49.89527 2.18885 37857 ft 454 kts 321°
2026-05-05 18:10 49.94541 2.12904 37858 ft 454 kts 321°
2026-05-05 18:11 49.99554 2.06935 37859 ft 453 kts 321°
2026-05-05 18:11 50.04562 2.00970 37862 ft 453 kts 321°
2026-05-05 18:12 50.09541 1.95019 37865 ft 454 kts 321°
2026-05-05 18:12 50.14547 1.89018 37868 ft 453 kts 321°
2026-05-05 18:13 50.19292 1.82574 37875 ft 451 kts 315°
2026-05-05 18:13 50.23815 1.75790 37876 ft 451 kts 313°
2026-05-05 18:14 50.28297 1.68944 37874 ft 450 kts 313°
2026-05-05 18:14 50.32761 1.62105 37863 ft 453 kts 314°
2026-05-05 18:14 50.35022 1.58618 37481 ft 456 kts 314°
2026-05-05 18:15 50.37294 1.55113 36637 ft 461 kts 314°
2026-05-05 18:15 50.39613 1.51563 35649 ft 470 kts 315°
2026-05-05 18:15 50.41975 1.47982 34859 ft 474 kts 316°
2026-05-05 18:15 50.44340 1.44374 34232 ft 474 kts 315°
2026-05-05 18:16 50.46686 1.40750 33325 ft 473 kts 315°
2026-05-05 18:16 50.49010 1.37117 32429 ft 469 kts 313°
2026-05-05 18:16 50.51246 1.33397 31458 ft 467 kts 311°
2026-05-05 18:16 50.53411 1.29719 30883 ft 456 kts 311°
2026-05-05 18:17 50.55529 1.26099 30445 ft 442 kts 311°
2026-05-05 18:17 50.57601 1.22573 29628 ft 438 kts 312°
2026-05-05 18:17 50.59726 1.19123 28528 ft 439 kts 313°
2026-05-05 18:17 50.61869 1.15728 27575 ft 436 kts 314°
2026-05-05 18:18 50.64006 1.12359 26669 ft 433 kts 315°
2026-05-05 18:18 50.66130 1.09024 25814 ft 428 kts 314°
2026-05-05 18:18 50.68218 1.05727 25271 ft 417 kts 314°
2026-05-05 18:18 50.70224 1.02534 24831 ft 403 kts 313°
2026-05-05 18:19 50.72164 0.99426 24397 ft 391 kts 314°
2026-05-05 18:19 50.74048 0.96424 23965 ft 380 kts 314°
2026-05-05 18:19 50.75865 0.93537 23540 ft 372 kts 315°
2026-05-05 18:19 50.77687 0.90654 23035 ft 370 kts 315°
2026-05-05 18:20 50.79499 0.87774 22486 ft 368 kts 315°
2026-05-05 18:20 50.81300 0.84902 21968 ft 367 kts 315°
2026-05-05 18:20 50.83091 0.82036 21429 ft 365 kts 315°
2026-05-05 18:20 50.84871 0.79181 20915 ft 364 kts 315°
2026-05-05 18:21 50.86649 0.76351 20399 ft 362 kts 316°
2026-05-05 18:21 50.88426 0.73511 19835 ft 363 kts 315°
2026-05-05 18:21 50.90204 0.70656 19257 ft 363 kts 316°
2026-05-05 18:21 50.91948 0.67847 18841 ft 352 kts 315°
2026-05-05 18:22 50.93633 0.65120 18467 ft 340 kts 315°
2026-05-05 18:22 50.95244 0.62513 18069 ft 329 kts 316°
2026-05-05 18:22 50.96826 0.59959 17638 ft 320 kts 315°
2026-05-05 18:22 50.98364 0.57469 17235 ft 311 kts 316°
2026-05-05 18:23 50.99864 0.55041 16824 ft 304 kts 315°
2026-05-05 18:23 51.01325 0.52675 16418 ft 297 kts 316°
2026-05-05 18:23 51.02756 0.50355 16020 ft 291 kts 316°
2026-05-05 18:23 51.04160 0.48075 15623 ft 286 kts 316°
2026-05-05 18:24 51.05537 0.45834 15246 ft 280 kts 316°
2026-05-05 18:24 51.06889 0.43675 15123 ft 274 kts 317°
2026-05-05 18:24 51.08245 0.41586 15125 ft 275 kts 317°
2026-05-05 18:24 51.09630 0.39474 15130 ft 276 kts 317°
2026-05-05 18:25 51.11017 0.37361 14844 ft 276 kts 317°
2026-05-05 18:25 51.11486 0.36646 14663 ft 277 kts 317°
2026-05-05 18:25 51.13864 0.33018 13269 ft 295 kts 316°
2026-05-05 18:25 51.15361 0.30727 12532 ft 298 kts 317°
2026-05-05 18:26 51.16849 0.28444 11962 ft 295 kts 316°
2026-05-05 18:26 51.18312 0.26201 11523 ft 288 kts 317°
2026-05-05 18:26 51.19742 0.24006 11071 ft 281 kts 316°
2026-05-05 18:26 51.21136 0.21868 10642 ft 274 kts 317°
2026-05-05 18:27 51.22495 0.19783 10216 ft 268 kts 316°
2026-05-05 18:27 51.23829 0.17738 9775 ft 263 kts 316°
2026-05-05 18:27 51.25134 0.15730 9306 ft 258 kts 317°
2026-05-05 18:27 51.26411 0.13764 8909 ft 251 kts 317°
2026-05-05 18:28 51.28847 0.10018 8359 ft 242 kts 317°
2026-05-05 18:28 51.30059 0.08146 8103 ft 242 kts 317°
2026-05-05 18:28 51.31266 0.06280 8000 ft 240 kts 317°
2026-05-05 18:29 51.32410 0.04346 7985 ft 241 kts 305°
2026-05-05 18:29 51.33001 0.01850 7940 ft 243 kts 281°
2026-05-05 18:29 51.33191 -0.00839 7945 ft 245 kts 276°
2026-05-05 18:29 51.33319 -0.03564 7934 ft 246 kts 276°
2026-05-05 18:30 51.33443 -0.06284 7930 ft 246 kts 276°
2026-05-05 18:30 51.33567 -0.09012 7939 ft 246 kts 276°
2026-05-05 18:30 51.33689 -0.11700 7932 ft 246 kts 276°
2026-05-05 18:30 51.33813 -0.14425 7939 ft 246 kts 276°
2026-05-05 18:31 51.33937 -0.17158 7936 ft 246 kts 276°
2026-05-05 18:31 51.34060 -0.19881 7929 ft 245 kts 276°
2026-05-05 18:31 51.34186 -0.22599 7939 ft 245 kts 276°
2026-05-05 18:31 51.34309 -0.25316 7933 ft 245 kts 276°
2026-05-05 18:32 51.34432 -0.28039 7941 ft 245 kts 276°
2026-05-05 18:32 51.34554 -0.30751 7931 ft 245 kts 276°
2026-05-05 18:32 51.34635 -0.32556 7935 ft 245 kts 276°
2026-05-05 18:32 51.34797 -0.36163 7941 ft 245 kts 276°
2026-05-05 18:33 51.34878 -0.37993 7938 ft 245 kts 276°
2026-05-05 18:33 51.35000 -0.40716 7939 ft 245 kts 276°
2026-05-05 18:33 51.35160 -0.44312 7941 ft 244 kts 276°
2026-05-05 18:33 51.35280 -0.47040 7943 ft 245 kts 276°
2026-05-05 18:34 51.35360 -0.48834 7940 ft 245 kts 276°
2026-05-05 18:34 51.35480 -0.51562 7935 ft 245 kts 276°
2026-05-05 18:34 51.35599 -0.54283 7930 ft 245 kts 276°
2026-05-05 18:34 51.35717 -0.57005 7664 ft 245 kts 276°
2026-05-05 18:35 51.35833 -0.59719 7193 ft 245 kts 276°
2026-05-05 18:35 51.35947 -0.62442 6700 ft 245 kts 276°
2026-05-05 18:35 51.36059 -0.65169 6204 ft 246 kts 276°
2026-05-05 18:35 51.36171 -0.67913 5682 ft 246 kts 275°
2026-05-05 18:36 51.36280 -0.70609 5163 ft 246 kts 275°
2026-05-05 18:36 51.36390 -0.73339 4675 ft 246 kts 276°
2026-05-05 18:36 51.36760 -0.75965 4185 ft 239 kts 301°
2026-05-05 18:36 51.37848 -0.77788 4020 ft 216 kts 333°
2026-05-05 18:37 51.39191 -0.78353 4003 ft 188 kts 356°
2026-05-05 18:37 51.40475 -0.78420 3994 ft 183 kts
2026-05-05 18:37 51.41742 -0.78428 3818 ft 181 kts
2026-05-05 18:37 51.43002 -0.78429 3468 ft 181 kts
2026-05-05 18:38 51.44259 -0.78439 3123 ft 180 kts
2026-05-05 18:38 51.45454 -0.78025 2995 ft 177 kts 32°
2026-05-05 18:38 51.46285 -0.76565 2999 ft 179 kts 55°
2026-05-05 18:38 51.46901 -0.74814 3006 ft 181 kts 60°
2026-05-05 18:39 51.47432 -0.72983 3005 ft 182 kts 69°
2026-05-05 18:39 51.47665 -0.70979 2904 ft 185 kts 84°
2026-05-05 18:39 51.47681 -0.68919 2653 ft 184 kts 88°
2026-05-05 18:39 51.47679 -0.66876 2393 ft 183 kts 87°
2026-05-05 18:40 51.47689 -0.64835 2136 ft 183 kts 87°
2026-05-05 18:40 51.47696 -0.62796 1894 ft 181 kts 88°
2026-05-05 18:40 51.47703 -0.60801 1641 ft 177 kts 88°
2026-05-05 18:40 51.47710 -0.58899 1420 ft 162 kts 88°
2026-05-05 18:41 51.47716 -0.57175 1189 ft 148 kts 88°
2026-05-05 18:41 51.47722 -0.55597 984 ft 136 kts 88°
2026-05-05 18:41 51.47728 -0.54110 789 ft 135 kts 88°
2026-05-05 18:41 51.47732 -0.52592 612 ft 137 kts 86°
2026-05-05 18:42 51.47740 -0.51081 418 ft 135 kts 83°
2026-05-05 18:42 51.47742 -0.49541 246 ft 135 kts 84°
2026-05-05 18:42 51.47749 -0.48053 106 ft 132 kts 83°
2026-05-05 18:42 51.47761 -0.46773 92 ft 94 kts 90°
2026-05-05 18:43 51.47760 -0.46010 91 ft 41 kts 87°
2026-05-05 18:43 51.47760 -0.45620 91 ft 33 kts 90°
2026-05-05 18:43 51.47657 -0.45467 89 ft 7 kts 179°
2026-05-05 18:43 51.47655 -0.45467 89 ft 0 kts 179°
2026-05-05 18:44 51.47653 -0.45467 89 ft 0 kts 179°
2026-05-05 18:44 51.47647 -0.45467 89 ft 3 kts 179°
2026-05-05 18:44 51.47613 -0.45480 93 ft 7 kts 218°
2026-05-05 18:44 51.47596 -0.45586 90 ft 13 kts 270°
2026-05-05 18:45 51.47596 -0.45743 91 ft 14 kts 270°
2026-05-05 18:45 51.47595 -0.45901 93 ft 14 kts 270°
2026-05-05 18:45 51.47595 -0.46052 93 ft 12 kts 267°
2026-05-05 18:45 51.47594 -0.46179 91 ft 11 kts 270°
2026-05-05 18:46 51.47594 -0.46353 90 ft 22 kts 270°
2026-05-05 18:46 51.47593 -0.46590 89 ft 21 kts 270°
2026-05-05 18:46 51.47592 -0.46826 91 ft 20 kts 258°
2026-05-05 18:46 51.47582 -0.47036 93 ft 19 kts 268°
2026-05-05 18:47 51.47582 -0.47235 91 ft 17 kts 268°
2026-05-05 18:47 51.47580 -0.47401 93 ft 12 kts 267°
2026-05-05 18:47 51.47581 -0.47528 92 ft 12 kts 269°
2026-05-05 18:47 51.47581 -0.47676 93 ft 16 kts 270°
2026-05-05 18:48 51.47580 -0.47865 93 ft 17 kts 271°
2026-05-05 18:48 51.47579 -0.48035 90 ft 13 kts 271°
2026-05-05 18:48 51.47579 -0.48160 91 ft 9 kts 277°
2026-05-05 18:48 51.47578 -0.48288 92 ft 13 kts 270°
2026-05-05 18:49 51.47569 -0.48446 90 ft 13 kts 235°
2026-05-05 18:49 51.47496 -0.48475 89 ft 12 kts 180°
2026-05-05 18:49 51.47400 -0.48475 89 ft 13 kts 180°
2026-05-05 18:49 51.47322 -0.48473 89 ft 9 kts 179°
2026-05-05 18:50 51.47271 -0.48525 92 ft 9 kts 256°
2026-05-05 18:50 51.47271 -0.48581 90 ft 0 kts 270°
2026-05-05 18:50 51.47271 -0.48583 90 ft 0 kts 270°